| time (UTC) | temp F | wind direction | speed MPH | gust MPH | rain 1hr in | rain 24hr in | rain mn in | humidity % | barometer mb |
| 20260904124539 | 61 | 146 | 3.0 | 6.0 | 0.00 | 0.00 | 0.00 | 88 | 1012.0 |
| 20260904123037 | 60 | 122 | 2.0 | 7.0 | 0.00 | 0.00 | 0.00 | 88 | 1011.8 |
| 20260904121536 | 60 | 111 | 4.0 | 7.0 | 0.00 | 0.00 | 0.00 | 88 | 1011.7 |
| 20260904120050 | 61 | 156 | 1.0 | 8.0 | 0.00 | 0.00 | 0.00 | 88 | 1011.7 |
| 20260904114532 | 61 | 129 | 2.0 | 5.0 | 0.00 | 0.00 | 0.00 | 88 | 1011.5 |
| 20260904113034 | 61 | 114 | 2.0 | 5.0 | 0.00 | 0.00 | 0.00 | 87 | 1011.6 |
| 20260904111530 | 61 | 120 | 0.0 | 2.0 | 0.00 | 0.00 | 0.00 | 86 | 1011.6 |
| 20260904110028 | 61 | 118 | 1.0 | 3.0 | 0.00 | 0.00 | 0.00 | 85 | 1011.4 |
| 20260904104542 | 62 | 147 | 0.0 | 3.0 | 0.00 | 0.00 | 0.00 | 85 | 1011.3 |
| 20260904103027 | 61 | 109 | 1.0 | 6.0 | 0.00 | 0.00 | 0.00 | 86 | 1011.2 |
| 20260904101535 | 62 | 70 | 0.0 | 3.0 | 0.00 | 0.00 | 0.00 | 87 | 1011.2 |
| 20260904100024 | 62 | 110 | 0.0 | 2.0 | 0.00 | 0.00 | 0.00 | 87 | 1011.2 |
| 20260904094530 | 62 | 110 | 0.0 | 1.0 | 0.00 | 0.00 | 0.00 | 86 | 1011.2 |
| 20260904093026 | 62 | 226 | 0.0 | 3.0 | 0.00 | 0.00 | 0.00 | 86 | 1011.1 |
| 20260904091522 | 62 | 103 | 0.0 | 3.0 | 0.00 | 0.00 | 0.00 | 86 | 1011.0 |
| 20260904090021 | 62 | 80 | 2.0 | 9.0 | 0.00 | 0.00 | 0.00 | 86 | 1011.1 |
| 20260904084519 | 62 | 115 | 2.0 | 6.0 | 0.00 | 0.00 | 0.00 | 85 | 1011.1 |
| 20260904083016 | 63 | 195 | 0.0 | 3.0 | 0.00 | 0.00 | 0.00 | 83 | 1011.2 |
| 20260904081514 | 63 | 112 | 1.0 | 4.0 | 0.00 | 0.00 | 0.00 | 82 | 1011.2 |
| 20260904080011 | 64 | 103 | 1.0 | 4.0 | 0.00 | 0.00 | 0.00 | 79 | 1011.3 |
| 20260904074510 | 65 | 115 | 0.0 | 4.0 | 0.00 | 0.00 | 0.00 | 80 | 1011.3 |
| 20260904073008 | 65 | 94 | 2.0 | 6.0 | 0.00 | 0.00 | 0.00 | 79 | 1011.2 |
| 20260904071509 | 65 | 86 | 2.0 | 5.0 | 0.00 | 0.00 | 0.00 | 79 | 1011.2 |
| 20260904070006 | 65 | 122 | 2.0 | 5.0 | 0.00 | 0.00 | 0.00 | 77 | 1011.2 |
| 20260904064502 | 66 | 122 | 1.0 | 7.0 | 0.00 | 0.00 | 0.00 | 76 | 1011.1 |
| 20260904063002 | 66 | 129 | 2.0 | 8.0 | 0.00 | 0.00 | 0.00 | 76 | 1011.1 |
| 20260904061504 | 66 | 127 | 0.0 | 5.0 | 0.00 | 0.00 | 0.00 | 76 | 1011.2 |
| 20260904060121 | 67 | 135 | 0.0 | 4.0 | 0.00 | 0.00 | 0.00 | 75 | 1011.1 |
| 20260904054603 | 67 | 112 | 1.0 | 6.0 | 0.00 | 0.00 | 0.00 | 76 | 1011.2 |
| 20260904053147 | 67 | 84 | 0.0 | 6.0 | 0.00 | 0.00 | 0.00 | 75 | 1011.3 |
| 20260904051610 | 67 | 153 | 1.0 | 6.0 | 0.00 | 0.00 | 0.00 | 75 | 1011.3 |
| 20260904050058 | 67 | 141 | 2.0 | 6.0 | 0.00 | 0.00 | 0.00 | 75 | 1011.2 |
| 20260904044605 | 67 | 144 | 3.0 | 6.0 | 0.00 | 0.00 | 0.00 | 74 | 1011.2 |
| 20260904043104 | 67 | 110 | 1.0 | 4.0 | 0.00 | 0.00 | 0.00 | 73 | 1011.3 |
| 20260904041601 | 68 | 267 | 0.0 | 0.0 | 0.00 | 0.00 | 0.00 | 73 | 1011.4 |
| 20260904040056 | 68 | 176 | 0.0 | 0.0 | 0.00 | 0.00 | 0.00 | 72 | 1011.3 |
| 20260904034555 | 68 | 128 | 0.0 | 1.0 | 0.00 | 0.00 | 0.00 | 72 | 1011.2 |
| 20260904033105 | 68 | 109 | 0.0 | 0.0 | 0.00 | 0.00 | 0.00 | 72 | 1011.0 |
| 20260904031555 | 68 | 109 | 0.0 | 0.0 | 0.00 | 0.00 | 0.00 | 72 | 1010.9 |
| 20260904030054 | 69 | 109 | 0.0 | 0.0 | 0.00 | 0.00 | 0.00 | 71 | 1010.8 |
| 20260904024606 | 69 | 134 | 0.0 | 0.0 | 0.00 | 0.00 | 0.00 | 71 | 1011.0 |
| 20260904023101 | 69 | 136 | 0.0 | 1.0 | 0.00 | 0.00 | 0.00 | 71 | 1011.0 |
| 20260904021551 | 69 | 268 | 0.0 | 2.0 | 0.00 | 0.00 | 0.00 | 70 | 1011.0 |
| 20260904020050 | 69 | 120 | 0.0 | 1.0 | 0.00 | 0.00 | 0.00 | 70 | 1011.1 |
| 20260904014603 | 70 | 327 | 0.0 | 3.0 | 0.00 | 0.00 | 0.00 | 68 | 1011.1 |
| 20260904013049 | 70 | 165 | 0.0 | 2.0 | 0.00 | 0.00 | 0.00 | 67 | 1011.1 |
| 20260904011548 | 71 | 288 | 1.0 | 7.0 | 0.00 | 0.00 | 0.00 | 67 | 1011.3 |
| 20260904010049 | 71 | 319 | 0.0 | 4.0 | 0.00 | 0.00 | 0.00 | 66 | 1011.3 |
| 20260904004546 | 72 | 293 | 1.0 | 9.0 | 0.00 | 0.00 | 0.00 | 65 | 1011.3 |
| 20260904003049 | 73 | 323 | 0.0 | 4.0 | 0.00 | 0.00 | 0.00 | 64 | 1011.3 |
| 20260904001545 | 73 | 137 | 0.0 | 2.0 | 0.00 | 0.00 | 0.00 | 64 | 1011.2 |
| 20260904000108 | 73 | 303 | 1.0 | 6.0 | 0.00 | 0.00 | 0.00 | 64 | 1011.3 |
| 20260903234543 | 73 | 311 | 0.0 | 3.0 | 0.00 | 0.00 | 0.00 | 64 | 1011.3 |
| 20260903233100 | 73 | 252 | 3.0 | 9.0 | 0.00 | 0.00 | 0.00 | 63 | 1011.4 |
| 20260903231540 | 73 | 281 | 1.0 | 10.0 | 0.00 | 0.00 | 0.00 | 63 | 1011.5 |
| 20260903230055 | 75 | 163 | 0.0 | 3.0 | 0.00 | 0.00 | 0.00 | 59 | 1011.4 |
| 20260903224543 | 75 | 131 | 0.0 | 5.0 | 0.00 | 0.00 | 0.00 | 60 | 1011.5 |
| 20260903223058 | 75 | 115 | 0.0 | 4.0 | 0.00 | 0.00 | 0.00 | 60 | 1011.9 |
| 20260903221533 | 75 | 106 | 1.0 | 7.0 | 0.00 | 0.00 | 0.00 | 59 | 1012.1 |
| 20260903220030 | 75 | 11 | 1.0 | 5.0 | 0.00 | 0.00 | 0.00 | 59 | 1012.4 |
| 20260903214528 | 75 | 90 | 3.0 | 9.0 | 0.00 | 0.00 | 0.00 | 60 | 1012.4 |
| 20260903213040 | 74 | 288 | 2.0 | 11.0 | 0.00 | 0.00 | 0.00 | 60 | 1012.6 |
| 20260903211527 | 75 | 126 | 1.0 | 6.0 | 0.00 | 0.00 | 0.00 | 59 | 1012.7 |
| 20260903210024 | 74 | 46 | 0.0 | 7.0 | 0.00 | 0.00 | 0.00 | 61 | 1012.7 |
| 20260903204523 | 75 | 270 | 3.0 | 11.0 | 0.00 | 0.00 | 0.00 | 59 | 1012.8 |
| 20260903203029 | 75 | 351 | 0.0 | 5.0 | 0.00 | 0.00 | 0.00 | 59 | 1012.7 |
| 20260903201522 | 74 | 233 | 2.0 | 9.0 | 0.00 | 0.00 | 0.00 | 59 | 1012.8 |
| 20260903200019 | 76 | 259 | 0.0 | 6.0 | 0.00 | 0.00 | 0.00 | 58 | 1013.0 |
| 20260903194533 | 77 | 49 | 0.0 | 3.0 | 0.00 | 0.00 | 0.00 | 57 | 1013.1 |
| 20260903193017 | 76 | 115 | 0.0 | 3.0 | 0.00 | 0.00 | 0.00 | 59 | 1013.3 |
| 20260903191510 | 74 | 138 | 0.0 | 5.0 | 0.00 | 0.00 | 0.00 | 62 | 1013.5 |
| 20260903190007 | 74 | 288 | 0.0 | 7.0 | 0.00 | 0.00 | 0.00 | 62 | 1013.8 |
| 20260903184505 | 73 | 75 | 1.0 | 5.0 | 0.00 | 0.00 | 0.00 | 63 | 1014.0 |
| 20260903183003 | 72 | 132 | 1.0 | 5.0 | 0.00 | 0.00 | 0.00 | 64 | 1014.1 |
| 20260903181559 | 71 | 169 | 1.0 | 4.0 | 0.00 | 0.00 | 0.00 | 66 | 1014.3 |
| 20260903180057 | 70 | 135 | 2.0 | 5.0 | 0.00 | 0.00 | 0.00 | 67 | 1014.3 |
| 20260903174553 | 67 | 106 | 2.0 | 5.0 | 0.00 | 0.00 | 0.00 | 69 | 1014.5 |
| 20260903173050 | 66 | 117 | 0.0 | 7.0 | 0.00 | 0.00 | 0.00 | 71 | 1014.5 |
| 20260903171546 | 66 | 158 | 1.0 | 4.0 | 0.00 | 0.00 | 0.00 | 72 | 1014.7 |
| 20260903170043 | 65 | 100 | 2.0 | 7.0 | 0.00 | 0.00 | 0.00 | 73 | 1014.7 |
| 20260903164541 | 64 | 130 | 2.0 | 6.0 | 0.00 | 0.00 | 0.00 | 73 | 1014.6 |
| 20260903163042 | 64 | 117 | 2.0 | 4.0 | 0.00 | 0.00 | 0.00 | 74 | 1014.7 |
| 20260903161538 | 63 | 151 | 3.0 | 7.0 | 0.00 | 0.00 | 0.00 | 75 | 1014.9 |
| 20260903160043 | 63 | 135 | 2.0 | 5.0 | 0.00 | 0.00 | 0.00 | 75 | 1015.0 |
| 20260903154538 | 63 | 140 | 2.0 | 6.0 | 0.00 | 0.00 | 0.00 | 76 | 1015.0 |
| 20260903153036 | 62 | 94 | 1.0 | 5.0 | 0.00 | 0.00 | 0.00 | 77 | 1015.2 |
| 20260903151534 | 61 | 108 | 2.0 | 7.0 | 0.00 | 0.00 | 0.00 | 78 | 1015.1 |
| 20260903150044 | 60 | 91 | 3.0 | 8.0 | 0.00 | 0.00 | 0.00 | 79 | 1015.0 |
| 20260903144538 | 60 | 79 | 3.0 | 6.0 | 0.00 | 0.00 | 0.00 | 79 | 1015.0 |
| 20260903143032 | 60 | 98 | 1.0 | 6.0 | 0.00 | 0.00 | 0.00 | 79 | 1015.0 |
| 20260903141531 | 59 | 108 | 2.0 | 6.0 | 0.00 | 0.00 | 0.00 | 80 | 1014.8 |
| 20260903140035 | 59 | 127 | 2.0 | 6.0 | 0.00 | 0.00 | 0.00 | 79 | 1014.7 |
| 20260903134537 | 59 | 99 | 1.0 | 4.0 | 0.00 | 0.00 | 0.00 | 79 | 1014.7 |
| 20260903133032 | 59 | 123 | 3.0 | 7.0 | 0.00 | 0.00 | 0.00 | 79 | 1014.7 |
| 20260903131526 | 59 | 89 | 2.0 | 6.0 | 0.00 | 0.00 | 0.00 | 78 | 1014.7 |
| 20260903130024 | 59 | 122 | 2.0 | 6.0 | 0.00 | 0.00 | 0.00 | 79 | 1014.8 |